Temp
17 19 19 19 19 19 19 19 19 18 18 18 18 18 18 18 18 18 18 17 17 17 17 17 16 16 16 16 15 15 16 16
17 16 18 18 18 18 18 18 18 18 18 18 18 18 18 17 17 17 17 17 17 17 16 16 16 16 16 16 15 15 16 15
17 16 16 16 17 18 18 18 18 18 18 17 17 17 17 17 17 17 17 17 16 16 16 16 16 15 15 15 15 15 15 15
18 18 17 16 16 16 17 17 17 17 17 17 16 16 16 15 16 16 16 16 16 16 16 15 15 15 15 15 15 14 15 15
19 18 17 17 17 17 15 15 16 16 16 16 16 15 15 15 15 16 16 16 15 15 15 15 15 14 14 14 14 15 16 15
20 19 17 17 18 17 17 16 15 15 15 15 15 15 15 15 15 14 14 15 14 14 14 13 14 15 14 15 14 15 16 15
21 19 18 17 17 18 17 17 16 16 16 15 15 15 15 15 15 15 14 15 15 15 15 14 15 14 14 14 14 14 15 15
21 19 17 17 16 17 16 16 17 17 16 16 15 16 16 15 15 15 15 15 16 15 15 16 15 15 14 14 14 14 14 14
20 19 17 16 16 16 16 16 16 17 17 16 16 16 16 16 15 15 15 15 15 15 15 15 16 16 15 15 14 14 14 14
18 19 18 16 16 16 16 16 16 17 16 16 15 15 16 15 15 16 15 15 15 15 16 15 15 16 16 15 14 14 14 14
18 18 18 16 15 15 15 16 16 15 15 16 15 15 15 15 16 15 16 15 14 14 15 14 15 14 15 15 15 14 14 13
17 17 18 17 16 14 14 15 15 15 15 15 15 15 15 15 15 15 15 15 14 14 15 15 15 15 15 14 14 14 14 14
15 16 17 17 16 15 14 15 15 15 15 15 15 16 14 15 15 14 14 15 14 14 14 14 14 14 14 13 13 13 13 13
15 15 15 16 16 15 14 14 15 16 16 15 15 15 15 14 14 14 15 14 15 15 13 13 13 13 13 13 13 13 12 13
14 14 14 15 16 16 15 14 15 14 16 16 15 15 15 16 16 14 14 14 15 15 14 13 13 13 13 13 14 15 16 14
14 14 14 14 16 17 15 14 14 14 15 17 15 15 16 18 16 14 14 14 14 14 13 13 13 12 12 13 14 15 15 15
12 14 13 14 15 16 16 14 15 16 15 17 15 14 15 17 17 16 14 14 14 13 13 13 13 13 12 13 13 13 14 13
8 11 13 13 14 16 16 15 15 16 16 16 16 15 15 14 15 15 14 13 13 14 15 14 12 13 13 14 13 13 14 13
4 6 8 11 13 14 15 16 15 16 16 16 15 14 14 14 14 14 14 13 13 15 16 17 16 14 13 14 14 14 14 12
1 2 4 7 13 14 11 14 13 15 16 15 14 15 15 14 14 14 13 13 14 14 15 16 16 15 12 13 14 15 15 13
Height
1487 1488 1491 1494 1497 1501 1504 1506 1509 1512 1515 1517 1519 1522 1525 1528 1529 1531 1532 1533 1534 1536 1537 1538 1539 1540 1541 1542 1544 1544 1546 1547
1488 1489 1490 1492 1496 1499 1503 1506 1508 1511 1514 1517 1519 1521 1524 1527 1529 1531 1532 1534 1535 1536 1538 1539 1540 1541 1542 1543 1544 1546 1546 1549
1489 1489 1491 1492 1494 1497 1501 1504 1508 1510 1513 1516 1518 1520 1523 1526 1528 1531 1532 1534 1535 1537 1538 1540 1541 1542 1542 1544 1545 1547 1549 1549
1487 1488 1490 1492 1495 1495 1498 1501 1504 1507 1510 1513 1516 1519 1521 1524 1526 1529 1531 1533 1535 1536 1538 1539 1541 1542 1542 1544 1545 1547 1549 1549
1484 1485 1487 1490 1494 1495 1496 1499 1501 1504 1506 1509 1513 1517 1519 1523 1525 1527 1529 1531 1533 1535 1537 1538 1540 1544 1544 1544 1546 1548 1549 1549
1480 1483 1484 1486 1490 1492 1494 1496 1498 1501 1504 1506 1509 1513 1516 1519 1521 1525 1527 1529 1532 1533 1535 1538 1541 1542 1543 1544 1546 1547 1548 1547
1477 1478 1479 1482 1485 1488 1491 1492 1494 1498 1501 1502 1505 1510 1513 1516 1519 1522 1524 1528 1531 1533 1536 1536 1538 1540 1542 1542 1544 1545 1546 1547
1474 1475 1475 1478 1480 1483 1484 1488 1492 1495 1497 1498 1501 1506 1509 1512 1515 1518 1521 1524 1529 1530 1533 1535 1537 1538 1538 1540 1542 1542 1543 1545
1467 1468 1470 1472 1474 1477 1479 1482 1486 1490 1494 1496 1497 1502 1506 1509 1512 1514 1517 1520 1524 1527 1529 1533 1534 1536 1535 1537 1539 1540 1541 1541
1464 1464 1463 1465 1468 1470 1473 1475 1477 1484 1488 1491 1491 1495 1501 1504 1508 1511 1513 1516 1519 1523 1526 1527 1530 1532 1534 1534 1535 1536 1537 1538
1458 1457 1458 1457 1462 1464 1465 1468 1468 1473 1478 1485 1485 1489 1495 1499 1504 1507 1511 1511 1515 1517 1522 1522 1526 1528 1529 1531 1533 1534 1534 1534
1450 1451 1450 1451 1452 1457 1458 1460 1462 1467 1469 1476 1481 1482 1487 1493 1498 1501 1505 1509 1510 1513 1517 1519 1523 1524 1526 1526 1528 1529 1531 1532
1442 1443 1443 1444 1441 1445 1450 1450 1453 1456 1462 1466 1473 1474 1480 1485 1490 1495 1497 1504 1506 1508 1511 1515 1518 1521 1522 1523 1523 1524 1526 1527
1431 1432 1433 1433 1435 1435 1440 1446 1445 1447 1453 1459 1463 1468 1472 1478 1482 1489 1490 1497 1503 1504 1506 1509 1513 1516 1518 1520 1520 1521 1518 1518
1421 1421 1423 1424 1426 1427 1433 1439 1443 1440 1444 1453 1457 1461 1460 1469 1475 1483 1488 1491 1497 1499 1501 1505 1507 1510 1513 1515 1516 1515 1515 1512
1410 1412 1414 1416 1417 1419 1419 1424 1426 1427 1434 1437 1449 1451 1453 1460 1467 1476 1484 1487 1492 1492 1497 1501 1502 1504 1507 1508 1508 1510 1511 1512
1400 1402 1404 1406 1406 1410 1409 1415 1421 1425 1428 1429 1440 1446 1448 1452 1460 1467 1476 1480 1481 1486 1492 1497 1501 1502 1501 1502 1505 1504 1506 1508
1393 1391 1395 1396 1396 1398 1398 1404 1410 1418 1420 1423 1428 1440 1442 1447 1452 1459 1466 1471 1474 1475 1480 1490 1497 1496 1497 1498 1498 1499 1497 1501
1392 1388 1386 1383 1383 1384 1389 1394 1401 1409 1413 1416 1417 1429 1436 1440 1446 1451 1455 1462 1468 1470 1469 1475 1480 1482 1484 1488 1489 1492 1492 1497
1397 1394 1387 1379 1374 1377 1372 1377 1395 1403 1407 1410 1411 1420 1427 1435 1436 1442 1448 1454 1461 1465 1467 1469 1470 1470 1474 1480 1482 1483 1487 1489
Wind_Speed
15 29 27 25 23 21 20 20 21 22 23 23 22 20 19 18 17 16 14 12 11 10 10 9 7 7 6 6 7 10 9 4
14 21 28 26 25 23 21 21 21 22 23 23 22 21 20 19 18 16 15 13 12 11 10 9 8 7 6 6 6 8 7 3
16 17 20 24 26 25 23 22 22 23 24 24 24 23 22 21 19 18 16 14 13 12 11 10 8 8 7 7 6 4 3 3
18 21 21 22 20 23 27 26 26 27 28 27 26 23 23 21 21 19 17 16 15 13 13 11 10 8 10 9 7 3 4 5
20 23 24 24 23 21 23 23 28 29 29 29 27 23 23 21 21 21 20 18 17 16 16 14 10 11 9 7 5 6 6 7
19 25 26 26 25 25 23 25 26 26 27 30 28 27 25 27 23 19 19 19 16 16 14 13 12 11 11 8 9 8 8 7
19 25 29 28 30 25 26 28 27 27 28 31 30 27 27 26 23 22 22 20 18 17 15 13 14 14 13 13 11 10 9 9
21 25 32 29 30 30 28 30 27 29 30 32 34 30 28 27 25 25 23 24 18 23 19 17 17 13 13 14 13 12 12 10
22 23 29 34 35 35 29 28 30 31 31 32 33 33 29 27 28 26 24 24 23 21 17 16 14 14 13 14 14 14 13 13
24 24 30 36 37 36 34 31 36 30 32 31 37 38 29 29 26 26 24 28 27 21 20 23 22 15 15 13 12 15 16 17
30 29 27 35 40 38 39 37 36 36 40 31 39 38 35 29 27 28 26 24 29 26 21 25 19 20 19 18 14 14 13 14
33 33 34 35 38 42 41 38 38 33 32 35 29 39 41 35 29 28 31 24 26 27 23 20 20 19 17 20 20 19 16 16
37 36 36 31 40 42 41 42 41 38 37 35 36 36 43 42 32 29 30 27 23 27 27 24 23 19 20 20 19 20 19 19
38 41 41 42 40 44 44 42 43 46 40 36 35 33 39 44 45 28 29 27 26 25 27 27 24 24 21 15 14 17 23 26
37 40 41 41 40 43 41 40 40 43 39 33 36 36 42 40 44 37 25 24 26 30 28 28 27 26 25 16 10 17 16 15
37 37 39 41 49 43 46 45 47 44 44 45 37 41 40 37 40 40 29 26 24 28 27 28 26 26 27 31 28 20 9 10
23 35 37 40 45 45 47 47 45 39 42 42 37 33 34 35 36 36 33 30 31 26 21 24 24 25 24 23 27 31 28 25
17 17 35 38 45 43 54 51 42 41 40 39 38 36 37 34 32 29 35 38 32 29 21 17 18 21 24 28 26 26 25 28
17 17 19 29 35 41 56 50 48 40 41 41 38 39 37 37 35 35 39 39 37 32 36 39 40 44 40 32 29 31 28 33
22 14 8 10 30 31 33 42 44 39 38 38 38 41 37 36 38 38 37 38 37 35 34 38 43 46 46 35 31 32 34 39
Wind_Direction
237 198 198 205 205 208 205 202 201 202 202 200 198 197 195 193 191 192 190 190 189 184 181 176 178 174 174 163 152 139 127 162
229 204 200 203 207 210 208 206 205 205 205 204 201 199 197 197 196 197 194 195 192 188 187 184 182 185 180 176 161 142 121 158
215 208 205 206 208 210 208 208 209 208 207 208 203 200 198 200 199 198 196 198 197 195 193 191 190 197 195 192 171 158 156 184
217 211 210 206 206 212 207 207 208 208 207 207 205 197 201 203 202 197 199 202 202 203 202 201 203 213 211 203 178 215 220 205
222 215 209 209 208 210 206 206 206 208 208 209 200 197 200 196 204 203 200 203 206 208 208 209 202 207 224 241 227 233 229 216
235 221 214 212 208 210 209 205 206 206 206 205 199 199 205 197 203 198 195 207 199 211 212 205 217 211 226 228 224 223 230 246
244 225 220 215 208 214 207 206 209 206 207 212 200 202 211 201 203 199 202 204 201 211 208 216 216 224 224 231 231 229 239 224
256 231 224 218 216 209 213 207 208 206 209 215 208 201 215 205 205 204 206 205 204 212 210 214 215 231 229 230 233 239 244 240
262 237 227 222 216 212 211 211 203 208 209 211 219 201 209 212 206 207 208 209 204 204 221 213 221 222 243 236 232 237 230 246
259 254 232 225 219 215 209 211 207 210 209 213 220 202 201 206 213 210 211 215 207 208 210 220 214 220 225 236 240 241 242 237
258 254 251 224 223 217 209 210 211 210 202 211 218 211 197 210 208 206 206 217 208 210 210 220 217 219 219 232 229 238 249 250
259 253 246 232 223 225 215 210 211 207 217 206 223 218 212 203 207 221 197 216 211 205 210 221 215 224 224 231 227 233 235 244
258 253 248 245 220 220 218 210 203 209 209 213 208 224 217 213 203 212 213 207 222 221 207 210 218 213 226 229 235 236 239 238
259 252 251 242 228 224 222 213 206 213 206 210 212 217 222 219 217 211 224 206 214 232 223 216 217 218 219 226 240 252 256 253
260 250 247 244 242 223 221 216 213 209 199 204 208 201 225 221 223 210 221 219 213 221 230 221 220 220 217 220 233 250 263 258
257 253 249 244 241 225 214 213 210 210 202 209 212 209 221 220 220 218 203 220 205 222 228 219 220 231 233 233 230 241 271 254
280 255 248 244 243 239 216 217 214 210 201 212 205 215 216 223 219 216 207 214 214 215 218 221 230 237 246 252 255 248 248 249
306 292 253 243 241 243 215 219 210 206 201 195 199 204 210 208 222 213 213 219 213 209 214 214 275 266 257 254 248 256 258 246
335 295 267 238 235 240 216 213 210 207 202 197 190 196 200 208 207 210 217 221 214 222 236 233 235 246 250 243 244 254 262 261
12 5 15 237 230 227 215 197 214 210 206 198 193 210 215 209 209 216 218 223 224 227 226 243 254 251 247 243 253 255 259 264